QZS-2 (QZSS/PRN 184) (42738 NORAD) Tracking and Keplerian Element Data

This shows tracking and keplerian element data for the satellite.

Feedback or suggestion? Click here.




ElementValue
Catalog42738
NameQZS-2 (QZSS/PRN 184)
Epoch Orbit414
Epoch Day197.55723334
Epoch Year2018
RAAN284.1752
Inclination44.1523
Eccentricity0.0736693
Argument of Perigee271.0941
Mean Anonmoly80.5989
Mean Motion1.00280987
Decay Rate-2.15E-06
L11 42738U 17028A 18197.55723334 -.00000215 00000-0 00000+0 0 9998
L22 42738 44.1523 284.1752 0736693 271.0941 80.5989 1.00280987 4145

Live tracking and technical data element details for QZS-2 (QZSS/PRN 184) (NORAD 42738). QZS-2 (QZSS/PRN 184) can be tracked NOW for your location showing map with azimuth and elevation plus other details from your city location.

Track the satellite on the map from your city or location and see movement details for azimuth, elevation, latitude, longitude, range, height, and movement on the map or in text.







IsCatalogInMostPopularTable: catalog: 42738, numindb: 112
Update: records affected: 1



GetName: 42738 QZS-2 (QZSS/PRN 184)

Hit Count: updated at: Fri, 20 Jul 2018 02:36:12 GMT